Skip Page Navigation
NASA JPL Caltech
NASA Logo - Jet Propulsion Laboratory + View the NASA Portal
+ Center for Near-Earth Object Studies
JPL Home Earth Solar System Stars & Galaxies Technology
JPL Solar System Dynamics
BODIES ORBITS EPHEMERIDES TOOLS PHYSICAL DATA DISCOVERY FAQ SITE MAP
IMPORTANT: The SSD Announcement email list is now available. Major changes are coming in the near future, including possible hostname and/or URL changes. To be notified of such changes, subscribe to this email list.

Please visit this page for more details.


JPL Small-Body Database Browser
Search: [ help ]  
392219 (2009 UV79)
Classification: Jupiter Trojan          SPK-ID: 2392219
Ephemeris | Orbit Diagram | Orbital Elements | Mission Design | Physical Parameters | Discovery Circumstances ]

[ show orbit diagram ]
Orbital Elements at Epoch 2459000.5 (2020-May-31.0) TDB
Reference: JPL 12 (heliocentric ecliptic J2000)
 Element Value Uncertainty (1-sigma)   Units 
e .08671403039674201 9.2102e-08  
a 5.180241962131974 3.8068e-07 au
q 4.731042303165183 7.7149e-07 au
i 8.209754537858917 9.5667e-06 deg
node 12.38086814044857 5.6496e-05 deg
peri 64.84870691321971 0.0001207 deg
M 292.7879326022672 0.00012347 deg
tp 2459804.522585654272
(2022-Aug-13.02258565)
0.001541 TDB
period 4306.490516393515
11.79
0.0004747
1.3e-06
d
yr
n .08359475044228898 9.2146e-09 deg/d
Q 5.629441621098764 4.1369e-07 au
  Orbit Determination Parameters
   # obs. used (total)      96  
   data-arc span      3999 days (10.95 yr)  
   first obs. used      2008-09-24  
   last obs. used      2019-09-06  
   planetary ephem.      DE431  
   SB-pert. ephem.      SB431-N16  
   condition code      0  
   norm. resid. RMS      .60312  
   source      ORB  
   producer      Otto Matic  
   solution date      2019-Sep-24 07:08:39  

Additional Information
 Earth MOID = 3.75649 au 
 Jupiter MOID = .0559573 au 
 T_jup = 2.972 
[ show covariance matrix ]

Ephemeris | Orbit Diagram | Orbital Elements | Mission Design | Physical Parameters | Discovery Circumstances ]

Physical Parameter Table
Parameter Symbol Value Units Sigma Reference Notes
absolute magnitude H 14.0   n/a MPO455784  

392219 (2009 UV79)          Discovered 2008-Sep-24 by Mt. Lemmon Survey at Mount Lemmon
Reference: Last Updated: 2014-04-17

Alternate Designations
 2009 UV79 = 2013 CT47 
Ephemeris | Orbit Diagram | Orbital Elements | Mission Design | Physical Parameters | Discovery Circumstances ]
ABOUT SSD CREDITS/AWARDS PRIVACY/COPYRIGHT GLOSSARY LINKS
FirstGov 2020-Jun-03 10:13 UT
(server date/time)  
NASA Home Page
Site Manager:   Ryan S. Park
Webmaster  Alan B. Chamberlin